{"data":{"norad_id":69161,"intl_designator":"2026-111P","name":"STARLINK-37311","alt_names":[],"object_type":"PAYLOAD","status":"ACTIVE","operator":null,"country":"US","launch_date":"2026-05-21","launch_site_code":"AFETR","launch_vehicle":null,"mission":null,"orbit_class":"UNKNOWN","rcs_meters":null,"size_class":null,"mass_kg":null,"dimensions":null,"purposes":["comms"],"wikipedia_slug":null,"has_3d_model":false,"image_url":null,"decayed_at":null,"tle_current":{"epoch":"2026-09-19T22:47:44.022912Z","epoch_age_seconds":70682,"freshness":"FRESH","line1":"1 69161U 26111P   26262.94981508  .00019511  00000+0  58726-3 0  9993","line2":"2 69161  53.1558  68.3337 0000763  75.4702 284.6385 15.34390549 18810","mean_motion":15.34390549,"eccentricity":7.63e-5,"inclination_deg":53.1558,"raan_deg":68.3337,"arg_perigee_deg":75.4702,"mean_anomaly_deg":284.6385,"bstar":0.00058726,"rev_number":1881,"period_min":93.848336131794,"perigee_km":462.20937246136,"apogee_km":463.25328896863,"semimajor_km":6840.868330715,"source":"CELESTRAK","updated_at":"2026-09-20T09:00:44.091988Z"}}}